Location: Wavehorne
(51.0500°N, 0.8333°E)
Time: 20:56:35
(UTC+00:00)

NOSS 2-2 (C) - Pass Details

Date: 24 October 2021
Orbit: 450 x 1756 km, 63.3° (Epoch: 26 November)

Event Time Altitude Azimuth Distance (km) Brightness Sun altitude
Exits shadow 05:38:01 12° 271° (W) 2,491 6.0 -9.6°
Maximum altitude 05:40:32 15° 245° (WSW) 2,458 6.1 -9.2°
Drops below altitude 10° 05:44:14 10° 214° (SW) 3,057 6.8 -8.7°
Sets 05:48:47 0° 194° (SSW) 4,316 7.8 -8.0°
